Change the Weather History Date:

Tuesday, March 27, 2012

  Actual Average Record
Temperature  
Mean Temperature 76 °F -  
Max Temperature 80 °F 78 °F 86 °F (2011)
Min Temperature 71 °F 69 °F 55 °F (2013)
Cooling Degree Days 10    
Growing Degree Days 26 (Base 50)    
Moisture  
Dew Point 63 °F    
Average Humidity 63    
Maximum Humidity 74    
Minimum Humidity 55    
Precipitation  
Precipitation 0.00 in - - ()
Sea Level Pressure  
Sea Level Pressure 30.06 in    
Wind  
Wind Speed 9 mph (NE)    
Max Wind Speed 14 mph    
Max Gust Speed 21 mph    
Visibility 10 miles    
Events      
Averages and records for this station are not official NWS values.
T = Trace of Precipitation, MM = Missing Value Source: NWS Daily Summary

Daily Weather History Graph

Daily Weather History Graph

Search for Another Location

Airport or City:

Trip Planner

Search our weather history database for the weather conditions in past years. The results will help you decide how hot, cold, wet, or windy it might be!

Date:

Astronomy

Mar. 27, 2012 Rise Set
Actual Time 7:23 AM EDT 7:41 PM EDT
Civil Twilight 7:00 AM EDT 8:03 PM EDT
Nautical Twilight 6:33 AM EDT 8:30 PM EDT
Astronomical Twilight 6:06 AM EDT 8:57 PM EDT
Moon 10:23 AM EDT (3/27) No Moon Set
Length of Visible Light 13h 03m
Length of Day
12h 18m
Waxing Crescent, 22% of the Moon is Illuminated
Mar 27
Waxing Crescent
Mar 30
First Quarter
Apr 6
Full
Apr 13
Last Quarter
Apr 21
New

Hourly Weather History & Observations

Time (EDT) Temp. Heat Index Dew Point Humidity Pressure Visibility Wind Dir Wind Speed Gust Speed Precip Events Conditions
12:53 AM - - - N/A% 30.02 in 10.0 mi North 10.4 mph - 0.00 in   Clear
1:53 AM - - - N/A% 30.00 in 10.0 mi North 8.1 mph - N/A   Clear
2:53 AM - - - N/A% 29.99 in 10.0 mi North 5.8 mph - N/A   Clear
3:53 AM - - - N/A% 29.99 in 10.0 mi NNE 3.5 mph - N/A   Clear
4:53 AM - - - N/A% 29.99 in 10.0 mi NE 3.5 mph - N/A   Clear
5:53 AM - - - N/A% 30.00 in 10.0 mi NE 5.8 mph - N/A   Clear
6:53 AM 71.6 °F - 62.1 °F 72% 30.01 in 10.0 mi NE 4.6 mph - N/A   Partly Cloudy
7:53 AM 71.6 °F - 63.0 °F 74% 30.03 in 10.0 mi NE 6.9 mph - N/A   Partly Cloudy
8:53 AM 73.4 °F - 63.0 °F 70% 30.05 in 10.0 mi NE 6.9 mph - N/A   Partly Cloudy
9:53 AM 77.0 °F - 63.0 °F 62% 30.07 in 10.0 mi NE 8.1 mph - N/A   Partly Cloudy
10:53 AM 78.8 °F - 64.9 °F 62% 30.09 in 10.0 mi NE 10.4 mph - N/A   Partly Cloudy
11:53 AM 78.8 °F - 64.9 °F 62% 30.10 in 10.0 mi NNE 9.2 mph - N/A   Scattered Clouds
12:53 PM 78.8 °F - 64.0 °F 60% 30.10 in 10.0 mi NNE 10.4 mph 17.3 mph N/A   Mostly Cloudy
1:53 PM 78.8 °F - 63.0 °F 58% 30.09 in 10.0 mi NNE 10.4 mph - N/A   Mostly Cloudy
2:53 PM 78.8 °F - 63.0 °F 58% 30.09 in 10.0 mi ENE 9.2 mph - N/A   Mostly Cloudy
3:53 PM 80.6 °F 81.9 °F 63.0 °F 55% 30.07 in 10.0 mi NE 10.4 mph 19.6 mph N/A   Mostly Cloudy
4:53 PM 78.8 °F - 64.0 °F 60% 30.07 in 10.0 mi East 13.8 mph - N/A   Mostly Cloudy
5:53 PM 78.8 °F - 64.9 °F 62% 30.07 in 10.0 mi East 13.8 mph - N/A   Mostly Cloudy
6:53 PM 77.0 °F - 64.0 °F 64% 30.08 in 10.0 mi East 11.5 mph 20.7 mph N/A   Mostly Cloudy
7:53 PM 77.0 °F - 63.0 °F 62% 30.08 in 10.0 mi East 12.7 mph - N/A   Mostly Cloudy
8:53 PM 75.2 °F - 62.1 °F 64% 30.10 in 10.0 mi East 13.8 mph - 0.00 in   Partly Cloudy
9:53 PM 73.4 °F - 63.0 °F 70% 30.11 in 10.0 mi East 13.8 mph - N/A   Partly Cloudy
10:53 PM - - - N/A% 30.12 in 10.0 mi ENE 11.5 mph - N/A   Partly Cloudy
11:53 PM - - - N/A% 30.13 in 10.0 mi ENE 11.5 mph - N/A   Partly Cloudy